FOX-1D (AO-92) (43137 NORAD) Tracking and Keplerian Element Data

This shows tracking and keplerian element data for the satellite.

Feedback or suggestion? Click here.




ElementValue
Catalog43137
NameFOX-1D (AO-92)
Epoch Orbit27031
Epoch Day325.16656799
Epoch Year2022
RAAN39.1164
Inclination97.3554
Eccentricity0.0007742
Argument of Perigee155.7232
Mean Anonmoly204.4377
Mean Motion15.33034104
Decay Rate0.00013808
L11 43137U 18004AC 22325.16656799 .00013808 00000+0 43448-3 0 9999
L22 43137 97.3554 39.1164 0007742 155.7232 204.4377 15.33034104270316



Live tracking and technical data element details for FOX-1D (AO-92) (NORAD 43137). FOX-1D (AO-92) can be tracked NOW for your location showing map with azimuth and elevation plus other details from your city location.







IsCatalogInMostPopularTable: catalog: 43137, numindb: 2179
Update: records affected: 1



GetName: 43137 FOX-1D (AO-92)

Hit Count: updated at: Fri, 02 Dec 2022 11:57:57 GMT